Regional Weather Roundup
Issued by NWS

Home | Current Version | Previous Version | Text Only | Print | Product List | Glossary Off
Versions: 1 2 3 4 5 6 7 8 9 10 11 12 13 14 15 16 17 18 19 20 21 22 23 24 25 26 27 28 29 30 31 32 33 34 35 36 37 38 39 40 41 42 43 44 45 46 47 48 49 50

000
ASUS43 KMKX 262011
RWRWI

WISCONSIN REGIONAL WEATHER ROUNDUP
NATIONAL WEATHER SERVICE MILWAUKEE/SULLIVAN WI
300 PM CDT WED JUL 26 2017

NOTE: "FAIR" INDICATES FEW OR NO CLOUDS BELOW 12,000 FEET WITH NO
SIGNIFICANT WEATHER AND/OR OBSTRUCTIONS TO VISIBILITY.

WIZ001-002-006>008-014>016-023>028-262100-
NORTHWEST WISCONSIN

CITY           SKY/WX    TMP DP  RH WIND       PRES   REMARKS
SUPERIOR ARPT  NOT AVBL
ASHLAND        NOT AVBL
HAYWARD        MOSUNNY   79  59  50 VRB6      29.99F HX  80
SIREN          SUNNY     81  57  44 NW5       30.00S HX  81
CUMBERLAND     CLOUDY    77  59  53 NW9       30.00S
RICE LAKE      CLOUDY    78  65  63 W7        30.01S HX  80
CHETEK         CLOUDY    77  67  72 CALM      29.99S
LADYSMITH      CLOUDY    77  64  63 NW6       30.01F
EAU CLAIRE     CLOUDY    75  71  87 W6        29.98R
MENOMONIE      CLOUDY    76  71  85 W3        29.99S
NEW RICHMOND   CLOUDY    78  65  63 N7        30.00F HX  80
OSCEOLA        MOSUNNY   81  61  50 NW8       30.02S HX  82
$$

WIZ003>005-009-010-017-018-262100-
NORTH CENTRAL WISCONSIN

CITY           SKY/WX    TMP DP  RH WIND       PRES   REMARKS
MANITOWISH WTR SUNNY     80  57  45 W7        29.97F HX  81
ARBOR VITAE    SUNNY     80  64  58 NW9G16    29.98S HX  81
WOODRUFF       SUNNY     80  64  58 NW9G16    29.98S HX  81
RHINELANDER    CLOUDY    78  68  71 W8        29.99S HX  80
EAGLE RIVER    CLOUDY    78  61  55 NW9       29.97S HX  80
LAND O LAKES   SUNNY     81  56  43 W6        29.98F HX  81
PHILLIPS       SUNNY     78  63  60 W6        29.98F
TOMAHAWK         N/A     71  66  85 SW5       30.01R
MEDFORD        CLOUDY    71  68  90 W5        30.00F
MERRILL        CLOUDY    73  71  94 W7        30.00R
$$

WIZ029-030-035-036-043>047-262100-
CENTRAL WISCONSIN

CITY           SKY/WX    TMP DP  RH WIND       PRES   REMARKS
WAUSAU         CLOUDY    73  69  87 W9        29.98S
MOSINEE        PTSUNNY   73  70  88 SW9       30.01F
MARSHFIELD     CLOUDY    74  67  78 W6        30.00S
STEVENS POINT  LGT RAIN  74  68  82 SW6       30.01S
WAUPACA        LGT RAIN  81  71  72 W7        30.00R HX  85
WAUTOMA        LGT RAIN  79  73  83 W7        30.01R HX  82
WISC RAPIDS    LGT RAIN  74  71  91 W5        30.03R
CAMP DOUGLAS   LGT RAIN  77  72  83 NW3       29.99F
$$

WIZ011>013-019>022-031-037>040-048>050-262100-
NORTHEAST WISCONSIN

CITY           SKY/WX    TMP DP  RH WIND       PRES   REMARKS
ANTIGO         CLOUDY    71  69  94 W9        29.99S
SHAWANO        PTSUNNY   78  69  75 SW8       29.96F HX  80
OCONTO         MOSUNNY   75  70  83 SW8       29.95F
STURGEON BAY     N/A     75  70  84 SW8       29.96F
GREEN BAY      MOSUNNY   78  73  84 SW7       29.97F HX  81
MANITOWOC      PTSUNNY   73  70  90 S8        30.02R
APPLETON       PTSUNNY   79  66  65 W9        29.98F HX  81
CLINTONVILLE   CLOUDY   N/A N/A N/A SW7       29.98F
OSHKOSH        CLOUDY    78  71  79 S12       29.99S HX  80
$$

WIZ032>034-041-042-053>061-262100-
SOUTHWEST WISCONSIN

CITY           SKY/WX    TMP DP  RH WIND       PRES   REMARKS
LA CROSSE      CLOUDY    80  71  74 SW7       29.99S HX  84
SPARTA         CLOUDY    76  69  79 NW5       30.00F
VIROQUA        CLOUDY    74  73  96 S6        30.02F
BOSCOBEL       CLOUDY    81  72  74 CALM      29.99F HX  85
PRAIRIE DU CHI CLOUDY    77  70  79 W5        30.01R
PLATTEVILLE    CLOUDY    78  76  93 SE5       30.01F HX  81
$$

WIZ056-057-062-063-064-067-068-262100-
SOUTH CENTRAL WISCONSIN

CITY           SKY/WX    TMP DP  RH WIND       PRES   REMARKS
REEDSBURG      LGT RAIN  73  73 100 CALM      30.00F
BARABOO/DELLS  RAIN      73  69  88 W6G17     30.02R
LONE ROCK      CLOUDY    78  74  87 NW5       30.00F HX  81
MINERAL POINT  PTSUNNY   79  77  94 SW5       30.02F HX  83
MADISON        CLOUDY    77  72  84 VRB3      29.99F
MIDDLETON      CLOUDY    79  73  81 SW3       30.01S HX  82
WATERTOWN      MIX PCPN  78  75  91 S3        30.00F HX  80
MONROE         CLOUDY    79  72  78 S6        30.01F HX  82
JANESVILLE     CLOUDY    82  73  74 S8        30.00F HX  88
$$

WIZ051-052-058>065-066-070>072-262100-
SOUTHEAST WISCONSIN

CITY           SKY/WX    TMP DP  RH WIND       PRES   REMARKS
MILWAUKEE      CLOUDY    85  72  65 SW8       30.00F HX  91
WAUKESHA       MOSUNNY   81  70  69 SW6       30.02F HX  84
MILWAUKEE/TIMM PTSUNNY   81  66  61 SW5       30.02S HX  83
RACINE         PTSUNNY   83  72  69 SE8       30.02F HX  88
KENOSHA        CLOUDY    83  71  67 W7        30.01F HX  87
FOND DU LAC    CLOUDY    76  71  85 S9        30.00F
SHEBOYGAN      LGT RAIN  71  70  96 S3        30.01S FOG
WEST BEND      LGT RAIN  73  72  94 CALM      30.01F
JUNEAU         CLOUDY    74  71  91 CALM      30.02F
$$

LSZ147-162-262100-
LAKE SUPERIOR

STATION/POSITION TIME  TEMP    WIND        PRES    WAVE
                       AIR SEA DIR/SP/G            HT/PER
                 (UTC) (F)     (DEG/KT/KT) (MB)    (FT/S)
W MID LAKE BUOY  1950   59 52  250/ 10/ 12 1013.6F   1
DEVILS ISLAND    2000   72     220/ 11/ 14 1013.9F
PORT WING        1940   77     260/ 10/ 13 1014.6F
SAXON HARBOR     1940   78      30/  2/  4 1014.6R
$$

LMZ867-665-643>646-262100-
LAKE MICHIGAN

STATION/POSITION TIME  TEMP    WIND        PRES    WAVE
                       AIR SEA DIR/SP/G            HT/PER
                 (UTC) (F)     (DEG/KT/KT) (MB)    (FT/S)
CHAMBERS ISLAND  1940   70     180/  6/ 12 1013.5F
S GREEN BAY BUOY 2000   73 71  200/ 10/ 14 1014.1
N MID LAKE BUOY  1950   67 65  210/ 16/ 19 1014.7R   4/ 6
NORTHPORT PIER   1940   71     190/  3/  8 1013.9S
KEWAUNEE LAKESHO 1942   69     180/  9/ 11 1014.5F
SHEBOYGAN LAKESH 2000   71     200/  4/  5 1016.4R
PORT WASHINGTON  1940   72     200/  2/  6 1017.6R
ATWATER BUOY     1939   71 69  140/ 10/ 10 1016.1F
MILWAUKEE LAKESH 1950   71     130/ 11/ 11   N/A
S MID LAKE BUOY  1950   72 71  150/ 12/ 12 1016.8F   2/ 4
KENOSHA   LAKESH 2000   73     160/  8/  9 1015.9
$$

TC  - TEMPERATURE IN CELSIUS
VSB - VISIBILITY IN STATUTE MILES
WCI - WIND CHILL INDEX
HX  - HEAT INDEX




USA.gov is the U.S. government's official web portal to all federal, state and local government web resources and services.